Location: Unspecified
(42.3650°N, 71.1030°W)
Time: 16:33:05
(UTC+00:00)

Tiros 1 - Pass Details

Date: 04 July 2024
Orbit: 624 x 656 km, 48.4° (Epoch: 13 July)

Event Time Altitude Azimuth Distance (km) Brightness Sun altitude
Rises 04:55:42 0° 296° (WNW) 2,904 10.8 -24.8°
Reaches altitude 10° 04:58:02 10° 299° (WNW) 1,997 10.0 -24.8°
Maximum altitude 05:02:36 67° 23° (NNE) 680 7.3 -24.7°
Enters shadow 05:04:02 42° 89° (E) 900 7.8 -24.7°
Drops below altitude 10° 05:07:11 10° 106° (ESE) 2,001 - -24.7°
Sets 05:09:31 0° 109° (ESE) 2,911 - -24.6°
